Radioactive Concentration measured by Seawater Radiation Monitor near Fukushima Daiichi Nuclear Power Station
Date,Time,Cs137(Bq/L),Cs134(Bq/L),Total β(Bq/L)
2017/08/11,00:00,0.57,ND,ND
2017/08/11,00:10,0.59,ND,ND
2017/08/11,00:20,0.54,0.026,ND
2017/08/11,00:30,0.58,ND,ND
2017/08/11,00:40,0.53,0.033,ND
2017/08/11,00:50,0.55,0.043,ND
2017/08/11,01:00,0.56,0.046,ND
2017/08/11,01:10,0.58,0.045,ND
2017/08/11,01:20,0.58,0.052,ND
2017/08/11,01:30,0.58,0.054,ND
2017/08/11,01:40,0.58,0.041,ND
2017/08/11,01:50,0.55,0.035,ND
2017/08/11,02:00,0.53,0.026,ND
2017/08/11,02:10,0.51,0.025,ND
2017/08/11,02:20,0.53,ND,ND
2017/08/11,02:30,0.46,ND,ND
2017/08/11,02:40,0.46,ND,ND
2017/08/11,02:50,0.48,ND,ND
2017/08/11,03:00,0.48,ND,ND
2017/08/11,03:10,0.50,ND,ND
2017/08/11,03:20,0.50,ND,ND
2017/08/11,03:30,0.47,0.025,ND
2017/08/11,03:40,0.46,0.031,ND
2017/08/11,03:50,0.44,0.039,ND
2017/08/11,04:00,0.52,ND,ND
2017/08/11,04:10,0.48,0.033,ND
2017/08/11,04:20,0.48,0.034,ND
2017/08/11,04:30,0.55,ND,ND
2017/08/11,04:40,0.54,ND,ND
2017/08/11,04:50,0.53,ND,ND
2017/08/11,05:00,0.53,ND,ND
2017/08/11,05:10,0.51,ND,ND
2017/08/11,05:20,0.51,ND,ND
2017/08/11,05:30,0.45,0.028,ND
2017/08/11,05:40,0.44,0.031,ND
2017/08/11,05:50,0.43,0.031,ND
2017/08/11,06:00,0.43,0.030,ND
2017/08/11,06:10,0.44,0.028,ND
2017/08/11,06:20,0.49,ND,ND
2017/08/11,06:30,0.49,ND,ND
2017/08/11,06:40,0.50,ND,ND
2017/08/11,06:50,0.45,0.028,ND
2017/08/11,07:00,0.45,0.027,ND
2017/08/11,07:10,0.47,ND,ND
2017/08/11,07:20,0.42,0.026,ND
2017/08/11,07:30,0.44,ND,ND
2017/08/11,07:40,0.45,ND,ND
2017/08/11,07:50,0.46,ND,ND
2017/08/11,08:00,0.46,ND,ND
2017/08/11,08:10,0.47,ND,ND
2017/08/11,08:20,0.47,ND,ND
2017/08/11,08:30,0.48,ND,ND
2017/08/11,08:40,0.40,ND,ND
2017/08/11,08:50,0.49,ND,ND
2017/08/11,09:00,0.44,ND,ND
2017/08/11,09:10,0.46,ND,ND
2017/08/11,09:20,0.54,ND,ND
2017/08/11,09:30,0.54,ND,ND
2017/08/11,09:40,0.53,ND,ND
2017/08/11,09:50,0.53,ND,ND
2017/08/11,10:00,0.50,ND,ND
2017/08/11,10:10,0.44,0.028,ND
2017/08/11,10:20,0.47,ND,ND
2017/08/11,10:30,0.46,ND,ND
2017/08/11,10:40,0.45,ND,ND
2017/08/11,10:50,0.42,ND,ND
2017/08/11,11:00,0.44,ND,ND
2017/08/11,11:10,0.42,ND,ND
2017/08/11,11:20,0.44,ND,ND
2017/08/11,11:30,0.45,ND,ND
2017/08/11,11:40,0.46,ND,ND
2017/08/11,11:50,0.42,ND,ND
2017/08/11,12:00,0.41,ND,ND
2017/08/11,12:10,0.45,ND,ND
2017/08/11,12:20,0.42,ND,ND
2017/08/11,12:30,0.42,ND,ND
2017/08/11,12:40,0.45,ND,ND
2017/08/11,12:50,0.46,ND,ND
2017/08/11,13:00,0.47,ND,ND
2017/08/11,13:10,0.45,ND,ND
2017/08/11,13:20,0.39,ND,ND
2017/08/11,13:30,0.47,ND,ND
2017/08/11,13:40,0.48,ND,ND
2017/08/11,13:50,0.47,ND,ND
2017/08/11,14:00,0.44,ND,ND
2017/08/11,14:10,0.44,ND,ND
2017/08/11,14:20,0.43,ND,ND
2017/08/11,14:30,0.40,ND,8.8
2017/08/11,14:40,0.41,ND,9.0
2017/08/11,14:50,0.36,ND,ND
2017/08/11,15:00,0.37,ND,ND
2017/08/11,15:10,0.41,ND,ND
2017/08/11,15:20,0.43,ND,ND
2017/08/11,15:30,0.45,ND,ND
2017/08/11,15:40,0.46,ND,ND
2017/08/11,15:50,0.38,ND,ND
2017/08/11,16:00,0.39,ND,ND
2017/08/11,16:10,0.41,ND,ND
2017/08/11,16:20,0.43,0.030,ND
2017/08/11,16:30,0.50,ND,ND
2017/08/11,16:40,0.50,ND,ND
2017/08/11,16:50,0.50,ND,ND
2017/08/11,17:00,0.45,ND,ND
2017/08/11,17:10,0.44,ND,ND
2017/08/11,17:20,0.47,ND,ND
2017/08/11,17:30,0.46,ND,ND
2017/08/11,17:40,0.46,ND,ND
2017/08/11,17:50,0.46,ND,ND
2017/08/11,18:00,0.46,ND,ND
2017/08/11,18:10,0.44,ND,ND
2017/08/11,18:20,0.44,ND,ND
2017/08/11,18:30,0.42,ND,ND
2017/08/11,18:40,0.42,ND,ND
2017/08/11,18:50,0.43,ND,ND
2017/08/11,19:00,0.42,ND,ND
2017/08/11,19:10,0.45,ND,ND
2017/08/11,19:20,0.47,ND,ND
2017/08/11,19:30,0.48,ND,ND
2017/08/11,19:40,0.48,ND,ND
2017/08/11,19:50,0.46,ND,ND
2017/08/11,20:00,0.49,ND,ND
2017/08/11,20:10,0.47,ND,ND
2017/08/11,20:20,0.43,ND,ND
2017/08/11,20:30,0.41,ND,ND
2017/08/11,20:40,0.42,ND,ND
2017/08/11,20:50,0.41,ND,ND
2017/08/11,21:00,0.40,ND,ND
2017/08/11,21:10,0.42,ND,ND
2017/08/11,21:20,0.45,ND,ND
2017/08/11,21:30,0.45,ND,ND
2017/08/11,21:40,0.43,ND,ND
2017/08/11,21:50,0.43,ND,ND
2017/08/11,22:00,0.43,ND,ND
2017/08/11,22:10,0.42,ND,ND
2017/08/11,22:20,0.42,ND,ND
2017/08/11,22:30,0.42,ND,ND
2017/08/11,22:40,0.43,ND,ND
2017/08/11,22:50,0.43,ND,ND
2017/08/11,23:00,0.44,ND,ND
2017/08/11,23:10,0.45,ND,ND
2017/08/11,23:20,0.44,ND,ND
2017/08/11,23:30,0.43,ND,ND
2017/08/11,23:40,0.42,ND,ND
2017/08/11,23:50,0.41,ND,ND
